• In United Kingdom
  • List of Countries
  • For 7 days
  • Water Temperature
  • Satellite Maps
  • Weather Map
  • Weather Widgets
  • user-avatar
    Login

    Hourly Weather Mingachevir

    Today, 19 October, Thursday

    Time Temperature Precipitation Wind Pressure Humidity
    00:00 +15°C° 0 mm 2 mps 760 mmHg 75%
    01:00 +15°C° 0 mm 2 mps 760 mmHg 76%
    02:00 +14°C° 0 mm 2 mps 759 mmHg 77%
    03:00 +14°C° 0 mm 1 mps 759 mmHg 75%
    04:00 +14°C° 0 mm 1 mps 759 mmHg 76%
    05:00 +14°C° 0 mm 1 mps 759 mmHg 76%
    06:00 +13°C° 0 mm 0 mps 759 mmHg 77%
    07:00 +15°C° 0 mm 1 mps 759 mmHg 74%
    08:00 +16°C° 0 mm 1 mps 759 mmHg 72%
    09:00 +18°C° 0 mm 1 mps 759 mmHg 69%
    10:00 +18°C° 0 mm 1 mps 758 mmHg 66%
    11:00 +19°C° 0 mm 1 mps 758 mmHg 63%
    12:00 +19°C° 0 mm 2 mps 757 mmHg 59%
    13:00 +21°C° 0 mm 1 mps 757 mmHg 58%
    14:00 +21°C° 0 mm 1 mps 757 mmHg 56%
    15:00 +21°C° 0 mm 1 mps 756 mmHg 54%
    16:00 +20°C° 0 mm 1 mps 756 mmHg 58%
    17:00 +20°C° 0 mm 1 mps 756 mmHg 62%
    18:00 +17°C° 0 mm 0 mps 756 mmHg 66%
    19:00 +16°C° 0 mm 0 mps 756 mmHg 67%
    20:00 +16°C° 0 mm 0 mps 756 mmHg 68%
    21:00 +15°C° 0 mm 0 mps 756 mmHg 69%
    22:00 +15°C° 0 mm 0 mps 756 mmHg 70%
    23:00 +15°C° 0 mm 0 mps 756 mmHg 70%

    Tomorrow, 20 October, Friday

    Time Temperature Precipitation Wind Pressure Humidity
    00:00 +15°C° 0 mm 0 mps 756 mmHg 71%
    01:00 +15°C° 0 mm 1 mps 756 mmHg 70%
    02:00 +15°C° 0 mm 1 mps 755 mmHg 70%
    03:00 +15°C° 0 mm 1 mps 755 mmHg 70%
    04:00 +15°C° 0 mm 1 mps 755 mmHg 69%
    05:00 +15°C° 0 mm 1 mps 755 mmHg 68%
    06:00 +14°C° 0 mm 1 mps 755 mmHg 67%
    07:00 +16°C° 0 mm 1 mps 755 mmHg 61%
    08:00 +19°C° 0 mm 1 mps 755 mmHg 56%
    09:00 +20°C° 0 mm 1 mps 755 mmHg 50%
    10:00 +21°C° 0 mm 1 mps 755 mmHg 47%
    11:00 +21°C° 0 mm 2 mps 755 mmHg 44%
    12:00 +23°C° 0 mm 2 mps 754 mmHg 41%
    13:00 +24°C° 0 mm 1 mps 754 mmHg 40%
    14:00 +24°C° 0 mm 1 mps 754 mmHg 39%
    15:00 +24°C° 0 mm 1 mps 753 mmHg 39%
    16:00 +23°C° 0 mm 1 mps 754 mmHg 43%
    17:00 +22°C° 0 mm 1 mps 754 mmHg 47%
    18:00 +21°C° 0 mm 1 mps 754 mmHg 50%
    19:00 +20°C° 0 mm 1 mps 754 mmHg 52%
    20:00 +19°C° 0 mm 2 mps 755 mmHg 53%
    21:00 +18°C° 0 mm 2 mps 755 mmHg 54%
    22:00 +17°C° 0 mm 2 mps 755 mmHg 56%
    23:00 +17°C° 0 mm 2 mps 755 mmHg 58%

    Day after tomorrow, 21 October, Saturday

    Time Temperature Precipitation Wind Pressure Humidity
    00:00 +16°C° 0 mm 1 mps 755 mmHg 60%
    01:00 +16°C° 0 mm 1 mps 755 mmHg 62%
    02:00 +16°C° 0 mm 1 mps 755 mmHg 64%
    03:00 +15°C° 0 mm 1 mps 755 mmHg 65%
    04:00 +15°C° 0 mm 1 mps 754 mmHg 66%
    05:00 +15°C° 0 mm 1 mps 754 mmHg 66%
    06:00 +15°C° 0 mm 1 mps 754 mmHg 66%
    07:00 +16°C° 0 mm 1 mps 754 mmHg 61%
    08:00 +19°C° 0 mm 1 mps 754 mmHg 56%
    09:00 +20°C° 0 mm 1 mps 754 mmHg 50%
    10:00 +21°C° 0 mm 1 mps 754 mmHg 47%
    11:00 +21°C° 0 mm 2 mps 753 mmHg 43%
    12:00 +23°C° 0 mm 2 mps 753 mmHg 40%
    13:00 +24°C° 0 mm 2 mps 752 mmHg 39%
    14:00 +24°C° 0 mm 2 mps 752 mmHg 38%
    15:00 +24°C° 0 mm 2 mps 751 mmHg 38%
    16:00 +23°C° 0 mm 1 mps 751 mmHg 42%
    17:00 +22°C° 0 mm 1 mps 752 mmHg 46%
    18:00 +18°C° 0 mm 0 mps 752 mmHg 50%
    19:00 +18°C° 0 mm 0 mps 752 mmHg 51%
    20:00 +18°C° 0 mm 0 mps 752 mmHg 52%
    21:00 +17°C° 0 mm 0 mps 752 mmHg 53%
    22:00 +19°C° 0 mm 1 mps 752 mmHg 54%
    23:00 +18°C° 0 mm 1 mps 752 mmHg 54%

    22 October, Sunday

    Time Temperature Precipitation Wind Pressure Humidity
    00:00 +18°C° 0 mm 1 mps 752 mmHg 55%
    01:00 +18°C° 0 mm 1 mps 752 mmHg 54%
    02:00 +16°C° 0 mm 1 mps 752 mmHg 54%
    03:00 +16°C° 0 mm 1 mps 752 mmHg 54%
    04:00 +16°C° 0 mm 2 mps 752 mmHg 53%
    05:00 +16°C° 0 mm 2 mps 752 mmHg 52%
    06:00 +15°C° 0 mm 2 mps 752 mmHg 51%
    07:00 +17°C° 0 mm 2 mps 752 mmHg 46%
    08:00 +18°C° 0 mm 2 mps 752 mmHg 41%
    09:00 +20°C° 0 mm 2 mps 752 mmHg 36%
    10:00 +21°C° 0 mm 3 mps 752 mmHg 34%
    11:00 +22°C° 0 mm 3 mps 751 mmHg 31%
    12:00 +24°C° 0 mm 3 mps 751 mmHg 29%
    13:00 +24°C° 0 mm 3 mps 750 mmHg 29%
    14:00 +24°C° 0 mm 3 mps 750 mmHg 29%
    15:00 +24°C° 0 mm 3 mps 749 mmHg 29%
    16:00 +21°C° 0 mm 3 mps 750 mmHg 32%
    17:00 +20°C° 0 mm 2 mps 750 mmHg 34%
    18:00 +19°C° 0 mm 2 mps 750 mmHg 37%
    19:00 +18°C° 0 mm 2 mps 750 mmHg 37%
    20:00 +18°C° 0 mm 2 mps 750 mmHg 38%
    21:00 +17°C° 0 mm 2 mps 751 mmHg 38%
    22:00 +17°C° 0 mm 2 mps 751 mmHg 38%
    23:00 +17°C° 0 mm 2 mps 751 mmHg 38%

    23 October, Monday

    Time Temperature Precipitation Wind Pressure Humidity
    00:00 +16°C° 0 mm 2 mps 751 mmHg 38%
    01:00 +16°C° 0 mm 3 mps 751 mmHg 39%
    02:00 +16°C° 0 mm 3 mps 751 mmHg 39%
    03:00 +14°C° 0 mm 3 mps 751 mmHg 40%
    04:00 +14°C° 0 mm 3 mps 751 mmHg 41%
    05:00 +14°C° 0 mm 3 mps 752 mmHg 42%
    06:00 +14°C° 0 mm 3 mps 752 mmHg 43%
    07:00 +16°C° 0 mm 3 mps 753 mmHg 42%
    08:00 +18°C° 0 mm 3 mps 753 mmHg 40%
    09:00 +19°C° 0 mm 2 mps 754 mmHg 38%
    10:00 +20°C° 0 mm 2 mps 754 mmHg 36%
    11:00 +21°C° 0 mm 2 mps 754 mmHg 34%
    12:00 +21°C° 0 mm 2 mps 754 mmHg 32%
    13:00 +21°C° 0 mm 2 mps 754 mmHg 32%
    14:00 +22°C° 0 mm 3 mps 754 mmHg 33%
    15:00 +22°C° 0 mm 3 mps 754 mmHg 33%
    16:00 +20°C° 0 mm 4 mps 754 mmHg 40%
    17:00 +19°C° 0 mm 4 mps 755 mmHg 48%
    18:00 +17°C° 0 mm 5 mps 755 mmHg 55%
    19:00 +16°C° 0 mm 5 mps 756 mmHg 61%
    20:00 +15°C° 0 mm 5 mps 756 mmHg 67%
    21:00 +15°C° 0 mm 5 mps 756 mmHg 72%
    22:00 +14°C° 0 mm 4 mps 756 mmHg 73%
    23:00 +14°C° 0 mm 4 mps 756 mmHg 74%

    24 October, Tuesday

    Time Temperature Precipitation Wind Pressure Humidity
    00:00 +14°C° 0 mm 3 mps 756 mmHg 76%
    01:00 +13°C° 0 mm 3 mps 756 mmHg 76%
    02:00 +14°C° 0 mm 2 mps 756 mmHg 77%
    03:00 +14°C° 0 mm 2 mps 756 mmHg 77%
    04:00 +14°C° 0 mm 1 mps 756 mmHg 78%
    05:00 +14°C° 0 mm 1 mps 756 mmHg 78%
    06:00 +14°C° 0 mm 1 mps 756 mmHg 79%
    07:00 +14°C° 0 mm 1 mps 757 mmHg 76%
    08:00 +15°C° 0 mm 1 mps 757 mmHg 73%
    09:00 +15°C° 0 mm 1 mps 757 mmHg 71%
    10:00 +16°C° 0 mm 2 mps 757 mmHg 68%
    11:00 +17°C° 0 mm 2 mps 756 mmHg 65%
    12:00 +18°C° 0 mm 2 mps 756 mmHg 62%
    13:00 +18°C° 0 mm 2 mps 756 mmHg 61%
    14:00 +18°C° 0 mm 2 mps 756 mmHg 61%
    15:00 +18°C° 0 mm 2 mps 756 mmHg 60%
    16:00 +18°C° 0 mm 2 mps 756 mmHg 64%
    17:00 +17°C° 0 mm 2 mps 757 mmHg 67%
    18:00 +16°C° 0 mm 2 mps 758 mmHg 71%
    19:00 +16°C° 0 mm 3 mps 758 mmHg 72%
    20:00 +16°C° 0 mm 3 mps 758 mmHg 73%
    21:00 +16°C° 0 mm 3 mps 759 mmHg 74%
    22:00 +14°C° 0 mm 3 mps 759 mmHg 75%
    23:00 +14°C° 0 mm 3 mps 759 mmHg 76%
    Show more